Location: Kershaw
(34.5481°N, 80.5823°W)
Time: 15:09:42
(UTC+00:00)

Courier 1B Rocket - Pass Details

Date: 01 October 2022
Orbit: 920 x 1202 km, 28.2° (Epoch: 08 December)

Event Time Altitude Azimuth Distance (km) Brightness Sun altitude
Rises 22:55:03 0° 215° (SW) 3,814 8.8 1.5°
Reaches altitude 10° 22:58:39 10° 199° (SSW) 2,806 7.8 0.7°
Maximum altitude 23:03:14 19° 156° (SSE) 2,144 6.7 -0.2°
Drops below altitude 10° 23:07:39 10° 113° (ESE) 2,686 6.8 -1.1°
Enters shadow 23:10:33 - 98° (E) 3,462 7.2 -1.7°
Sets 23:11:00 0° 96° (E) 3,597 - -1.8°
